Radiosonde details



Informationen :

Serial : D26002475
Type : Graw DFM
Frequency : 403.210MHz
Launchsite : Spokane
Nearest town : Liberty Lake, US (6.4km)

Altitude (Max) : 34814m at 2026-08-30 07:16:38
Speed (Max) : 94km/h at altitude 31443m

Average speed : 35km/h
Average ascent rate : 6m/s
Average descent rate : -9m/s
Ascent rate (Max) : 16.8m/s
Descent rate (Max): -36.1m/s

First frame :
WB7NNF at 2026-08-30 05:40:11 at altitude 3908m (OG: 3866m)
Last frame :
WB7NNF at 2026-08-30 07:57:57 at altitude 1798m (OG: 1756m)

Flighttime : 2h17m46s
Ascent time : 1h36m27s
Descent time : 41m19s
Uptime : -
Killtimer : -

Distance (Straight line distance): 39km

Distance (Route):


Frames : 341


Measurement :

Temperature : 4.4°C
Humidity : 0%
Pressure : 0hPa


Vertical profile (SkewT) :


Elevation profile :



Receiving stations :


Receiver Frames First received Last received
WB7NNF 341 2026-08-30 05:40:11 2026-08-30 07:57:57

Share per receiver :



All frames :


Receiver Date Latitude Longitude Direction Speed Altitude Climb Temperature Humidity Pressure Voltage Killtimer Uptime BKT XDATA
WB7NNF2026-08-30 07:57:5747.64905-117.0422598°31km/h1798m-7.7m/s4.4°C0%0hPa0V00:00:0000:00:0000:00:00
WB7NNF2026-08-30 07:57:3547.64927-117.04465102°31km/h1959m-7.7m/s3.1°C0%0hPa0V00:00:0000:00:0000:00:00
WB7NNF2026-08-30 07:57:1547.64939-117.0471290°31km/h2118m-7.5m/s1.7°C0%0hPa0V00:00:0000:00:0000:00:00
WB7NNF2026-08-30 07:56:5447.64939-117.0497589°35km/h2259m-6.8m/s0.6°C0%0hPa0V00:00:0000:00:0000:00:00
WB7NNF2026-08-30 07:56:3447.64931-117.0527392°38km/h2403m-6.9m/s-0.6°C0%0hPa0V00:00:0000:00:0000:00:00
WB7NNF2026-08-30 07:56:1347.64922-117.0555386°38km/h2543m-7.1m/s-1.1°C0%0hPa0V00:00:0000:00:0000:00:00
WB7NNF2026-08-30 07:55:5347.64890-117.0584082°42km/h2697m-7.3m/s-2.1°C0%0hPa0V00:00:0000:00:0000:00:00
WB7NNF2026-08-30 07:55:3247.64838-117.0612671°40km/h2840m-7.1m/s-3.0°C0%0hPa0V00:00:0000:00:0000:00:00
WB7NNF2026-08-30 07:55:1247.64784-117.0647483°44km/h2990m-7.1m/s-4.0°C0%0hPa0V00:00:0000:00:0000:00:00
WB7NNF2026-08-30 07:54:5147.64748-117.0680990°44km/h3135m-7.0m/s-4.9°C0%0hPa0V00:00:0000:00:0000:00:00
WB7NNF2026-08-30 07:54:3147.64734-117.0712688°44km/h3287m-7.4m/s-5.7°C0%0hPa0V00:00:0000:00:0000:00:00
WB7NNF2026-08-30 07:54:1047.64747-117.0743495°40km/h3437m-7.6m/s-6.6°C0%0hPa0V00:00:0000:00:0000:00:00
WB7NNF2026-08-30 07:53:5047.64780-117.07760106°42km/h3598m-7.5m/s-7.6°C0%0hPa0V00:00:0000:00:0000:00:00
WB7NNF2026-08-30 07:53:2947.64829-117.08072105°38km/h3760m-7.8m/s-8.6°C0%0hPa0V00:00:0000:00:0000:00:00
WB7NNF2026-08-30 07:53:0847.64901-117.08350117°42km/h3912m-7.7m/s-9.6°C0%0hPa0V00:00:0000:00:0000:00:00
WB7NNF2026-08-30 07:52:4847.64987-117.08665119°38km/h4078m-7.8m/s-10.7°C0%0hPa0V00:00:0000:00:0000:00:00
WB7NNF2026-08-30 07:52:2747.65099-117.08941114°40km/h4236m-7.9m/s-11.6°C0%0hPa0V00:00:0000:00:0000:00:00
WB7NNF2026-08-30 07:52:0747.65210-117.09192120°35km/h4403m-8.1m/s-12.7°C0%0hPa0V00:00:0000:00:0000:00:00
WB7NNF2026-08-30 07:51:4647.65310-117.09411117°29km/h4561m-8.1m/s-13.7°C0%0hPa0V00:00:0000:00:0000:00:00
WB7NNF2026-08-30 07:51:2647.65405-117.09615124°37km/h4730m-8.0m/s-14.7°C0%0hPa0V00:00:0000:00:0000:00:00
WB7NNF2026-08-30 07:51:0547.65525-117.09830134°38km/h4891m-8.2m/s-15.8°C0%0hPa0V00:00:0000:00:0000:00:00
WB7NNF2026-08-30 07:50:4547.65641-117.10032122°37km/h5065m-8.6m/s-17.0°C0%0hPa0V00:00:0000:00:0000:00:00
WB7NNF2026-08-30 07:50:2547.65743-117.10259118°35km/h5233m-8.6m/s-18.2°C0%0hPa0V00:00:0000:00:0000:00:00
WB7NNF2026-08-30 07:50:0447.65830-117.10499115°37km/h5415m-8.6m/s-19.7°C0%0hPa0V00:00:0000:00:0000:00:00
WB7NNF2026-08-30 07:49:4347.65898-117.10724118°33km/h5591m-8.8m/s-21.2°C0%0hPa0V00:00:0000:00:0000:00:00
WB7NNF2026-08-30 07:49:2347.65975-117.10985111°40km/h5784m-9.8m/s-22.6°C0%0hPa0V00:00:0000:00:0000:00:00
WB7NNF2026-08-30 07:49:0247.66066-117.11240119°38km/h5964m-8.0m/s-24.1°C0%0hPa0V00:00:0000:00:0000:00:00
WB7NNF2026-08-30 07:48:4247.66178-117.11530125°46km/h6137m-8.3m/s-25.7°C0%0hPa0V00:00:0000:00:0000:00:00
WB7NNF2026-08-30 07:48:2147.66307-117.11804123°44km/h6300m-7.8m/s-25.6°C0%0hPa0V00:00:0000:00:0000:00:00
WB7NNF2026-08-30 07:48:0147.66449-117.12064139°44km/h6464m-7.1m/s-26.8°C0%0hPa0V00:00:0000:00:0000:00:00
WB7NNF2026-08-30 07:47:4047.66624-117.12286146°47km/h6625m-7.7m/s-28.1°C0%0hPa0V00:00:0000:00:0000:00:00
WB7NNF2026-08-30 07:47:1947.66807-117.12481149°46km/h6781m-7.7m/s-29.6°C0%0hPa0V00:00:0000:00:0000:00:00
WB7NNF2026-08-30 07:46:5947.66997-117.12681146°44km/h6944m-7.4m/s-31.0°C0%0hPa0V00:00:0000:00:0000:00:00
WB7NNF2026-08-30 07:46:3747.67180-117.12887141°44km/h7106m-7.6m/s-32.3°C0%0hPa0V00:00:0000:00:0000:00:00
WB7NNF2026-08-30 07:46:1647.67364-117.13126137°44km/h7277m-7.8m/s-33.5°C0%0hPa0V00:00:0000:00:0000:00:00
WB7NNF2026-08-30 07:45:5447.67551-117.13360140°44km/h7451m-8.2m/s-35.0°C0%0hPa0V00:00:0000:00:0000:00:00
WB7NNF2026-08-30 07:45:3347.67714-117.13585139°44km/h7612m-8.2m/s-36.5°C0%0hPa0V00:00:0000:00:0000:00:00
WB7NNF2026-08-30 07:45:1347.67891-117.13812141°46km/h7784m-8.4m/s-38.0°C0%0hPa0V00:00:0000:00:0000:00:00
WB7NNF2026-08-30 07:44:5247.68071-117.14018143°44km/h7957m-8.4m/s-39.2°C0%0hPa0V00:00:0000:00:0000:00:00
WB7NNF2026-08-30 07:44:3147.68283-117.14180158°49km/h8122m-8.0m/s-40.0°C0%0hPa0V00:00:0000:00:0000:00:00
WB7NNF2026-08-30 07:44:1147.68548-117.14308162°51km/h8299m-8.4m/s-40.3°C0%0hPa0V00:00:0000:00:0000:00:00
WB7NNF2026-08-30 07:43:5047.68800-117.14462160°55km/h8467m-8.5m/s-41.3°C0%0hPa0V00:00:0000:00:0000:00:00
WB7NNF2026-08-30 07:43:3047.69110-117.14618168°69km/h8644m-8.3m/s-41.8°C0%0hPa0V00:00:0000:00:0000:00:00
WB7NNF2026-08-30 07:43:0947.69465-117.14712174°64km/h8815m-8.4m/s-42.2°C0%0hPa0V00:00:0000:00:0000:00:00
WB7NNF2026-08-30 07:42:4947.69769-117.14769171°51km/h8983m-8.1m/s-42.5°C0%0hPa0V00:00:0000:00:0000:00:00
WB7NNF2026-08-30 07:42:2847.70012-117.14843176°49km/h9139m-8.0m/s-41.5°C0%0hPa0V00:00:0000:00:0000:00:00
WB7NNF2026-08-30 07:42:0847.70272-117.14932156°51km/h9313m-8.7m/s-41.3°C0%0hPa0V00:00:0000:00:0000:00:00
WB7NNF2026-08-30 07:41:4747.70457-117.15100141°37km/h9484m-8.6m/s-41.3°C0%0hPa0V00:00:0000:00:0000:00:00
WB7NNF2026-08-30 07:41:2747.70626-117.15314143°49km/h9669m-8.8m/s-40.6°C0%0hPa0V00:00:0000:00:0000:00:00
WB7NNF2026-08-30 07:41:0747.70826-117.15530148°47km/h9841m-8.6m/s-41.0°C0%0hPa0V00:00:0000:00:0000:00:00
WB7NNF2026-08-30 07:40:4647.71011-117.15723141°35km/h10022m-9.0m/s-41.9°C0%0hPa0V00:00:0000:00:0000:00:00
WB7NNF2026-08-30 07:40:2547.71112-117.15909119°31km/h10204m-9.2m/s-43.2°C0%0hPa0V00:00:0000:00:0000:00:00
WB7NNF2026-08-30 07:40:0547.71147-117.16161108°37km/h10402m-9.7m/s-41.6°C0%0hPa0V00:00:0000:00:0000:00:00
WB7NNF2026-08-30 07:39:4447.71187-117.16434102°37km/h10605m-10.1m/s-41.6°C0%0hPa0V00:00:0000:00:0000:00:00
WB7NNF2026-08-30 07:39:2347.71232-117.16675103°35km/h10797m-10.0m/s-41.8°C0%0hPa0V00:00:0000:00:0000:00:00
WB7NNF2026-08-30 07:38:4247.71278-117.1719399°33km/h11198m-10.4m/s-42.6°C0%0hPa0V00:00:0000:00:0000:00:00
WB7NNF2026-08-30 07:38:2247.71301-117.1745792°33km/h11410m-10.4m/s-43.0°C0%0hPa0V00:00:0000:00:0000:00:00
WB7NNF2026-08-30 07:38:0147.71288-117.1772089°37km/h11618m-10.2m/s-43.7°C0%0hPa0V00:00:0000:00:0000:00:00
WB7NNF2026-08-30 07:37:4147.71296-117.1800796°35km/h11837m-10.6m/s-44.2°C0%0hPa0V00:00:0000:00:0000:00:00
WB7NNF2026-08-30 07:37:2047.71303-117.1833593°49km/h12051m-11.2m/s-44.7°C0%0hPa0V00:00:0000:00:0000:00:00
WB7NNF2026-08-30 07:37:0047.71323-117.1868795°42km/h12277m-10.7m/s-45.7°C0%0hPa0V00:00:0000:00:0000:00:00
WB7NNF2026-08-30 07:36:3947.71297-117.1902282°49km/h12497m-11.5m/s-45.8°C0%0hPa0V00:00:0000:00:0000:00:00
WB7NNF2026-08-30 07:36:1947.71295-117.1937097°35km/h12736m-11.8m/s-45.0°C0%0hPa0V00:00:0000:00:0000:00:00
WB7NNF2026-08-30 07:35:5847.71278-117.1956260°24km/h12962m-11.3m/s-45.5°C0%0hPa0V00:00:0000:00:0000:00:00
WB7NNF2026-08-30 07:35:3847.71205-117.1975265°33km/h13198m-11.8m/s-46.3°C0%0hPa0V00:00:0000:00:0000:00:00
WB7NNF2026-08-30 07:35:1747.71127-117.1999272°35km/h13427m-11.9m/s-46.6°C0%0hPa0V00:00:0000:00:0000:00:00
WB7NNF2026-08-30 07:34:5747.71057-117.2026463°37km/h13671m-11.7m/s-47.1°C0%0hPa0V00:00:0000:00:0000:00:00
WB7NNF2026-08-30 07:34:3647.70993-117.2050376°40km/h13913m-12.4m/s-47.4°C0%0hPa0V00:00:0000:00:0000:00:00
WB7NNF2026-08-30 07:34:1647.70946-117.2087786°53km/h14177m-13.0m/s-48.1°C0%0hPa0V00:00:0000:00:0000:00:00
WB7NNF2026-08-30 07:33:5547.70912-117.2126681°44km/h14443m-12.9m/s-48.8°C0%0hPa0V00:00:0000:00:0000:00:00
WB7NNF2026-08-30 07:33:3447.70853-117.2159770°46km/h14698m-12.9m/s-49.6°C0%0hPa0V00:00:0000:00:0000:00:00
WB7NNF2026-08-30 07:33:1447.70781-117.2190866°38km/h14964m-12.6m/s-50.1°C0%0hPa0V00:00:0000:00:0000:00:00
WB7NNF2026-08-30 07:32:5347.70729-117.2219487°42km/h15222m-13.2m/s-50.4°C0%0hPa0V00:00:0000:00:0000:00:00
WB7NNF2026-08-30 07:32:3347.70707-117.2245073°31km/h15478m-10.9m/s-50.5°C0%0hPa0V00:00:0000:00:0000:00:00
WB7NNF2026-08-30 07:31:5847.70589-117.2284766°46km/h15867m-11.6m/s-50.9°C0%0hPa0V00:00:0000:00:0000:00:00
WB7NNF2026-08-30 07:25:0147.69136-117.2447931°16km/h21652m-17.5m/s0°C0%0hPa0V00:00:0000:00:0000:00:00
WB7NNF2026-08-30 07:24:0347.68978-117.24566343°5km/h22703m-18.8m/s-52.0°C0%0hPa0V00:00:0000:00:0000:00:00
WB7NNF2026-08-30 07:23:3547.68914-117.2460889°5km/h23274m-20.4m/s-51.0°C0%0hPa0V00:00:0000:00:0000:00:00
WB7NNF2026-08-30 07:22:0147.68672-117.245590km/h25279m-22.9m/s-49.9°C0%0hPa0V00:00:0000:00:0000:00:00
WB7NNF2026-08-30 07:19:4647.68688-117.24377240°9km/h28852m-28.6m/s-46.0°C0%0hPa0V00:00:0000:00:0000:00:00
WB7NNF2026-08-30 07:17:0247.68781-117.24562250°22km/h34557m-36.1m/s-36.9°C0%0hPa0V00:00:0000:00:0000:00:00
WB7NNF2026-08-30 07:16:3847.68801-117.24628256°20km/h34814m12.5m/s-37.2°C0%0hPa0V00:00:0000:00:0000:00:00
WB7NNF2026-08-30 07:16:1547.68810-117.24579243°2km/h34650m6.4m/s-37.4°C0%0hPa0V00:00:0000:00:0000:00:00
WB7NNF2026-08-30 07:15:5447.68869-117.24507234°40km/h34518m7.5m/s-37.4°C0%0hPa0V00:00:0000:00:0000:00:00
WB7NNF2026-08-30 07:15:3247.68925-117.24457315°9km/h34374m6.7m/s-37.3°C0%0hPa0V00:00:0000:00:0000:00:00
WB7NNF2026-08-30 07:15:0647.68973-117.24406233°7km/h34190m8.3m/s-36.6°C0%0hPa0V00:00:0000:00:0000:00:00
WB7NNF2026-08-30 07:14:4147.69032-117.24306214°31km/h34021m7.3m/s-37.1°C0%0hPa0V00:00:0000:00:0000:00:00
WB7NNF2026-08-30 07:14:1947.69131-117.24251139°9km/h33864m8.3m/s-37.2°C0%0hPa0V00:00:0000:00:0000:00:00
WB7NNF2026-08-30 07:13:5947.69215-117.24270151°31km/h33723m10.1m/s-37.3°C0%0hPa0V00:00:0000:00:0000:00:00
WB7NNF2026-08-30 07:13:1747.69294-117.2448128°44km/h33435m5.7m/s-38.4°C0%0hPa0V00:00:0000:00:0000:00:00
WB7NNF2026-08-30 07:12:5747.69232-117.24434226°42km/h33306m4.4m/s-39.0°C0%0hPa0V00:00:0000:00:0000:00:00
WB7NNF2026-08-30 07:12:3547.69219-117.2443952°27km/h33176m4.4m/s-39.2°C0%0hPa0V00:00:0000:00:0000:00:00
WB7NNF2026-08-30 07:12:1447.69217-117.24562119°37km/h33056m9.4m/s-40.0°C0%0hPa0V00:00:0000:00:0000:00:00
WB7NNF2026-08-30 07:11:5247.69210-117.2465320°44km/h32934m7.4m/s-40.8°C0%0hPa0V00:00:0000:00:0000:00:00
WB7NNF2026-08-30 07:11:3147.69131-117.2471438°13km/h32815m3.2m/s-40.9°C0%0hPa0V00:00:0000:00:0000:00:00
WB7NNF2026-08-30 07:11:1147.69109-117.247665km/h32688m6.5m/s-40.9°C0%0hPa0V00:00:0000:00:0000:00:00
WB7NNF2026-08-30 07:10:5047.69095-117.2481026km/h32557m4.3m/s-41.3°C0%0hPa0V00:00:0000:00:0000:00:00
WB7NNF2026-08-30 07:10:2947.69122-117.24870178°33km/h32421m5.2m/s-41.7°C0%0hPa0V00:00:0000:00:0000:00:00
WB7NNF2026-08-30 07:10:0947.69210-117.24912178°38km/h32302m10.6m/s-42.3°C0%0hPa0V00:00:0000:00:0000:00:00
WB7NNF2026-08-30 07:09:4747.69348-117.24943150°51km/h32154m10.9m/s-42.7°C0%0hPa0V00:00:0000:00:0000:00:00
WB7NNF2026-08-30 07:09:2647.69475-117.24976265°42km/h32018m7.8m/s-43.2°C0%0hPa0V00:00:0000:00:0000:00:00
WB7NNF2026-08-30 07:09:0547.69535-117.25008230°49km/h31888m6.2m/s-42.7°C0%0hPa0V00:00:0000:00:0000:00:00
WB7NNF2026-08-30 07:08:4347.69618-117.25049342°29km/h31745m14.4m/s-42.3°C0%0hPa0V00:00:0000:00:0000:00:00
WB7NNF2026-08-30 07:08:2147.69738-117.25120169°46km/h31589m7.1m/s-42.6°C0%0hPa0V00:00:0000:00:0000:00:00
WB7NNF2026-08-30 07:08:0047.69917-117.25233164°93km/h31443m3.6m/s-42.9°C0%0hPa0V00:00:0000:00:0000:00:00
WB7NNF2026-08-30 07:07:3847.70084-117.25476120°46km/h31301m6.9m/s-42.8°C0%0hPa0V00:00:0000:00:0000:00:00
WB7NNF2026-08-30 07:07:1547.70171-117.2576986°29km/h31172m16.8m/s-43.2°C0%0hPa0V00:00:0000:00:0000:00:00
WB7NNF2026-08-30 07:06:4647.70164-117.2605634°18km/h30978m13.6m/s-43.0°C0%0hPa0V00:00:0000:00:0000:00:00
WB7NNF2026-08-30 07:06:1747.70038-117.2611447km/h30786m4.2m/s-43.2°C0%0hPa0V00:00:0000:00:0000:00:00
WB7NNF2026-08-30 07:05:5747.69933-117.25999290°53km/h30653m2.3m/s-43.3°C0%0hPa0V00:00:0000:00:0000:00:00
WB7NNF2026-08-30 07:05:3247.69817-117.25922337°24km/h30497m1.4m/s-43.0°C0%0hPa0V00:00:0000:00:0000:00:00
WB7NNF2026-08-30 07:05:1047.69708-117.25929330°26km/h30341m8.7m/s-43.0°C0%0hPa0V00:00:0000:00:0000:00:00
WB7NNF2026-08-30 07:04:3547.69546-117.25780275°26km/h30100m10.1m/s-42.7°C0%0hPa0V00:00:0000:00:0000:00:00
WB7NNF2026-08-30 07:04:1447.69502-117.25727305°18km/h29964m10.9m/s-42.9°C0%0hPa0V00:00:0000:00:0000:00:00
WB7NNF2026-08-30 07:03:3347.69484-117.2566836°49km/h29683m7.6m/s-43.6°C0%0hPa0V00:00:0000:00:0000:00:00
WB7NNF2026-08-30 07:03:1347.69487-117.2572061°38km/h29551m10.1m/s-44.9°C0%0hPa0V00:00:0000:00:0000:00:00
WB7NNF2026-08-30 07:02:5247.69448-117.25659263°26km/h29423m11.2m/s-46.7°C0%0hPa0V00:00:0000:00:0000:00:00
WB7NNF2026-08-30 07:02:3247.69456-117.25573282°47km/h29275m8.3m/s-47.5°C0%0hPa0V00:00:0000:00:0000:00:00
WB7NNF2026-08-30 07:02:0947.69516-117.25444160°11km/h29139m1.1m/s-47.1°C0%0hPa0V00:00:0000:00:0000:00:00
WB7NNF2026-08-30 07:01:4947.69553-117.25380179°37km/h28997m8.5m/s-47.0°C0%0hPa0V00:00:0000:00:0000:00:00
WB7NNF2026-08-30 07:01:2847.69633-117.25418196°35km/h28867m5.6m/s-46.5°C0%0hPa0V00:00:0000:00:0000:00:00
WB7NNF2026-08-30 07:01:0847.69677-117.25514170°38km/h28731m8.8m/s-46.2°C0%0hPa0V00:00:0000:00:0000:00:00
WB7NNF2026-08-30 06:59:5247.69778-117.25750152°31km/h28249m6.1m/s-46.2°C0%0hPa0V00:00:0000:00:0000:00:00
WB7NNF2026-08-30 06:59:2347.69872-117.25797118°18km/h28086m7.1m/s-45.9°C0%0hPa0V00:00:0000:00:0000:00:00
WB7NNF2026-08-30 06:59:0347.69872-117.25883360°42km/h27951m11.1m/s-45.7°C0%0hPa0V00:00:0000:00:0000:00:00
WB7NNF2026-08-30 06:58:4247.69856-117.25945350°38km/h27820m-0.8m/s-45.8°C0%0hPa0V00:00:0000:00:0000:00:00
WB7NNF2026-08-30 06:58:2047.69838-117.25926308°11km/h27694m8.7m/s-45.8°C0%0hPa0V00:00:0000:00:0000:00:00
WB7NNF2026-08-30 06:57:5947.69815-117.25822212°26km/h27560m7.5m/s-45.8°C0%0hPa0V00:00:0000:00:0000:00:00
WB7NNF2026-08-30 06:57:3747.69825-117.2578011°46km/h27425m1.9m/s-46.1°C0%0hPa0V00:00:0000:00:0000:00:00
WB7NNF2026-08-30 06:57:1547.69832-117.2575010°27km/h27286m9.2m/s-47.0°C0%0hPa0V00:00:0000:00:0000:00:00
WB7NNF2026-08-30 06:56:5447.69792-117.25660289°53km/h27154m12.0m/s-47.2°C0%0hPa0V00:00:0000:00:0000:00:00
WB7NNF2026-08-30 06:56:3347.69769-117.25549339°57km/h27022m10.2m/s-47.4°C0%0hPa0V00:00:0000:00:0000:00:00
WB7NNF2026-08-30 06:56:1347.69776-117.25449246°18km/h26902m-0.6m/s-47.8°C0%0hPa0V00:00:0000:00:0000:00:00
WB7NNF2026-08-30 06:55:5247.69750-117.25386144°35km/h26775m4.9m/s-47.9°C0%0hPa0V00:00:0000:00:0000:00:00
WB7NNF2026-08-30 06:55:3247.69788-117.25337311°13km/h26652m6.8m/s-48.2°C0%0hPa0V00:00:0000:00:0000:00:00
WB7NNF2026-08-30 06:55:1147.69801-117.25323334°29km/h26529m-6.0m/s-48.4°C0%0hPa0V00:00:0000:00:0000:00:00
WB7NNF2026-08-30 06:54:4947.69830-117.25320143°40km/h26402m9.1m/s-48.9°C0%0hPa0V00:00:0000:00:0000:00:00
WB7NNF2026-08-30 06:54:2747.69850-117.25382326°18km/h26277m7.7m/s-49.6°C0%0hPa0V00:00:0000:00:0000:00:00
WB7NNF2026-08-30 06:53:5947.69818-117.25399189°20km/h26112m-2.5m/s-50.4°C0%0hPa0V00:00:0000:00:0000:00:00
WB7NNF2026-08-30 06:53:3847.69748-117.2532755km/h25979m5.8m/s-50.7°C0%0hPa0V00:00:0000:00:0000:00:00
WB7NNF2026-08-30 06:53:1747.69686-117.25212288°24km/h25864m14.6m/s-50.5°C0%0hPa0V00:00:0000:00:0000:00:00
WB7NNF2026-08-30 06:52:5547.69677-117.25069297°9km/h25732m11.5m/s-50.1°C0%0hPa0V00:00:0000:00:0000:00:00
WB7NNF2026-08-30 06:52:3347.69666-117.24921249°33km/h25596m9.2m/s-49.6°C0%0hPa0V00:00:0000:00:0000:00:00
WB7NNF2026-08-30 06:52:1247.69705-117.24745174°35km/h25475m12.5m/s-49.8°C0%0hPa0V00:00:0000:00:0000:00:00
WB7NNF2026-08-30 06:51:5047.69732-117.24622282°47km/h25333m10.3m/s-49.5°C0%0hPa0V00:00:0000:00:0000:00:00
WB7NNF2026-08-30 06:51:2947.69760-117.24607149°49km/h25212m9.3m/s-49.6°C0%0hPa0V00:00:0000:00:0000:00:00
WB7NNF2026-08-30 06:51:0847.69711-117.2474350°33km/h25080m4.0m/s-50.1°C0%0hPa0V00:00:0000:00:0000:00:00
WB7NNF2026-08-30 06:50:4847.69616-117.24802302°40km/h24957m-1.9m/s-49.7°C0%0hPa0V00:00:0000:00:0000:00:00
WB7NNF2026-08-30 06:50:2647.69517-117.2485386°44km/h24835m3.7m/s-49.3°C0%0hPa0V00:00:0000:00:0000:00:00
WB7NNF2026-08-30 06:50:0547.69429-117.2489116°55km/h24706m7.0m/s-48.7°C0%0hPa0V00:00:0000:00:0000:00:00
WB7NNF2026-08-30 06:49:4447.69355-117.24881330°31km/h24591m4.2m/s-48.5°C0%0hPa0V00:00:0000:00:0000:00:00
WB7NNF2026-08-30 06:49:2447.69316-117.2484990°31km/h24459m3.0m/s-48.9°C0%0hPa0V00:00:0000:00:0000:00:00
WB7NNF2026-08-30 06:49:0247.69302-117.24850276°16km/h24335m10.9m/s-49.0°C0%0hPa0V00:00:0000:00:0000:00:00
WB7NNF2026-08-30 06:48:3247.69132-117.24845324°58km/h24150m12.1m/s-49.0°C0%0hPa0V00:00:0000:00:0000:00:00
WB7NNF2026-08-30 06:48:1147.69016-117.24774332°51km/h24028m1.9m/s-48.5°C0%0hPa0V00:00:0000:00:0000:00:00
WB7NNF2026-08-30 06:47:5147.68940-117.24649201°44km/h23908m7.2m/s-48.5°C0%0hPa0V00:00:0000:00:0000:00:00
WB7NNF2026-08-30 06:47:3047.68945-117.24535251°29km/h23793m8.3m/s-49.6°C0%0hPa0V00:00:0000:00:0000:00:00
WB7NNF2026-08-30 06:47:1047.68995-117.24506162°7km/h23668m8.6m/s-49.8°C0%0hPa0V00:00:0000:00:0000:00:00
WB7NNF2026-08-30 06:46:4947.68975-117.2455149°58km/h23549m7.8m/s-50.6°C0%0hPa0V00:00:0000:00:0000:00:00
WB7NNF2026-08-30 06:46:2947.68902-117.24627281°20km/h23427m7.9m/s-51.7°C0%0hPa0V00:00:0000:00:0000:00:00
WB7NNF2026-08-30 06:46:0847.68877-117.2469223°15km/h23319m7.7m/s-52.0°C0%0hPa0V00:00:0000:00:0000:00:00
WB7NNF2026-08-30 06:45:4747.68843-117.2478334°40km/h23209m-0.3m/s-52.5°C0%0hPa0V00:00:0000:00:0000:00:00
WB7NNF2026-08-30 06:45:2747.68754-117.24868114°31km/h23087m7.1m/s-53.8°C0%0hPa0V00:00:0000:00:0000:00:00
WB7NNF2026-08-30 06:45:0547.68669-117.24865289°37km/h22974m0.4m/s-53.9°C0%0hPa0V00:00:0000:00:0000:00:00
WB7NNF2026-08-30 06:44:4447.68637-117.2485769°31km/h22871m10.0m/s-53.8°C0%0hPa0V00:00:0000:00:0000:00:00
WB7NNF2026-08-30 06:44:2247.68599-117.24917311°47km/h22752m3.2m/s-53.9°C0%0hPa0V00:00:0000:00:0000:00:00
WB7NNF2026-08-30 06:44:0147.68514-117.2490872°44km/h22642m6.1m/s-53.5°C0%0hPa0V00:00:0000:00:0000:00:00
WB7NNF2026-08-30 06:43:4147.68404-117.24851295°47km/h22534m9.0m/s-53.7°C0%0hPa0V00:00:0000:00:0000:00:00
WB7NNF2026-08-30 06:43:1647.68304-117.24743292°9km/h22399m7.4m/s-53.3°C0%0hPa0V00:00:0000:00:0000:00:00
WB7NNF2026-08-30 06:42:5647.68259-117.2468725°2km/h22281m8.9m/s-53.3°C0%0hPa0V00:00:0000:00:0000:00:00
WB7NNF2026-08-30 06:42:3647.68190-117.2467739°24km/h22164m0.7m/s-53.8°C0%0hPa0V00:00:0000:00:0000:00:00
WB7NNF2026-08-30 06:41:5447.68124-117.24473351°33km/h21940m9.8m/s-54.5°C0%0hPa0V00:00:0000:00:0000:00:00
WB7NNF2026-08-30 06:41:1347.68047-117.2431257°24km/h21720m0.2m/s-54.4°C0%0hPa0V00:00:0000:00:0000:00:00
WB7NNF2026-08-30 06:40:5347.67979-117.24212255°35km/h21602m2.6m/s-54.1°C0%0hPa0V00:00:0000:00:0000:00:00
WB7NNF2026-08-30 06:40:3047.67918-117.24097276°40km/h21482m10.7m/s-53.5°C0%0hPa0V00:00:0000:00:0000:00:00
WB7NNF2026-08-30 06:40:1047.67911-117.23903291°27km/h21373m10.3m/s-53.4°C0%0hPa0V00:00:0000:00:0000:00:00
WB7NNF2026-08-30 06:39:4947.67920-117.23705219°37km/h21273m6.8m/s-52.9°C0%0hPa0V00:00:0000:00:0000:00:00
WB7NNF2026-08-30 06:39:2947.67916-117.23566247°55km/h21150m6.4m/s-53.6°C0%0hPa0V00:00:0000:00:0000:00:00
WB7NNF2026-08-30 06:39:0847.67945-117.23416201°27km/h21049m5.5m/s-53.4°C0%0hPa0V00:00:0000:00:0000:00:00
WB7NNF2026-08-30 06:38:4847.67995-117.23334247°26km/h20925m10.4m/s-53.1°C0%0hPa0V00:00:0000:00:0000:00:00
WB7NNF2026-08-30 06:38:2747.68053-117.23331250°26km/h20808m1.8m/s-53.2°C0%0hPa0V00:00:0000:00:0000:00:00
WB7NNF2026-08-30 06:37:4647.67986-117.2344463°27km/h20570m6.9m/s-53.6°C0%0hPa0V00:00:0000:00:0000:00:00
WB7NNF2026-08-30 06:37:2547.67909-117.23463285°27km/h20472m8.2m/s-53.3°C0%0hPa0V00:00:0000:00:0000:00:00
WB7NNF2026-08-30 06:37:0547.67851-117.2345171°38km/h20361m3.0m/s-53.1°C0%0hPa0V00:00:0000:00:0000:00:00
WB7NNF2026-08-30 06:36:4347.67833-117.23453266°35km/h20246m4.1m/s-53.2°C0%0hPa0V00:00:0000:00:0000:00:00
WB7NNF2026-08-30 06:36:2247.67774-117.23401250°29km/h20137m7.6m/s-53.5°C0%0hPa0V00:00:0000:00:0000:00:00
WB7NNF2026-08-30 06:36:0047.67745-117.23312303°58km/h20028m4.4m/s-54.4°C0%0hPa0V00:00:0000:00:0000:00:00
WB7NNF2026-08-30 06:35:3947.67776-117.23189241°44km/h19913m7.8m/s-53.6°C0%0hPa0V00:00:0000:00:0000:00:00
WB7NNF2026-08-30 06:35:1847.67823-117.23066286°42km/h19808m-0.3m/s-52.8°C0%0hPa0V00:00:0000:00:0000:00:00
WB7NNF2026-08-30 06:34:5847.67900-117.22947166°9km/h19692m5.9m/s-52.7°C0%0hPa0V00:00:0000:00:0000:00:00
WB7NNF2026-08-30 06:34:3747.67980-117.23000142°35km/h19579m5.7m/s-52.8°C0%0hPa0V00:00:0000:00:0000:00:00
WB7NNF2026-08-30 06:34:1747.68069-117.23068154°4km/h19472m7.9m/s-53.8°C0%0hPa0V00:00:0000:00:0000:00:00
WB7NNF2026-08-30 06:33:5547.68101-117.23159161°27km/h19365m5.5m/s-54.2°C0%0hPa0V00:00:0000:00:0000:00:00
WB7NNF2026-08-30 06:33:3447.68129-117.2319224°15km/h19257m5.7m/s-53.7°C0%0hPa0V00:00:0000:00:0000:00:00
WB7NNF2026-08-30 06:33:1247.68134-117.23269230°27km/h19148m4.8m/s-53.7°C0%0hPa0V00:00:0000:00:0000:00:00
WB7NNF2026-08-30 06:32:5147.68124-117.23355124°38km/h19034m8.5m/s-53.5°C0%0hPa0V00:00:0000:00:0000:00:00
WB7NNF2026-08-30 06:32:2947.68072-117.2347350°40km/h18919m8.2m/s-54.0°C0%0hPa0V00:00:0000:00:0000:00:00
WB7NNF2026-08-30 06:32:0847.68001-117.23556242°16km/h18819m8.0m/s-54.3°C0%0hPa0V00:00:0000:00:0000:00:00
WB7NNF2026-08-30 06:31:4847.67949-117.2366762°20km/h18716m6.6m/s-54.5°C0%0hPa0V00:00:0000:00:0000:00:00
WB7NNF2026-08-30 06:31:2747.67912-117.2373683°33km/h18607m10.0m/s-54.0°C0%0hPa0V00:00:0000:00:0000:00:00
WB7NNF2026-08-30 06:31:0547.67900-117.23826107°46km/h18485m5.4m/s-53.1°C0%0hPa0V00:00:0000:00:0000:00:00
WB7NNF2026-08-30 06:30:4447.67892-117.2394274°2km/h18370m3.7m/s-52.6°C0%0hPa0V00:00:0000:00:0000:00:00
WB7NNF2026-08-30 06:30:2447.67824-117.2416970°2km/h18242m7.4m/s-52.4°C0%0hPa0V00:00:0000:00:0000:00:00
WB7NNF2026-08-30 06:29:4147.67574-117.24567354°42km/h17999m4.0m/s-52.9°C0%0hPa0V00:00:0000:00:0000:00:00
WB7NNF2026-08-30 06:29:2047.67388-117.2472762km/h17877m0.3m/s-51.9°C0%0hPa0V00:00:0000:00:0000:00:00
WB7NNF2026-08-30 06:28:5847.67199-117.2491240°68km/h17762m0.4m/s-51.4°C0%0hPa0V00:00:0000:00:0000:00:00
WB7NNF2026-08-30 06:28:3747.67033-117.25056354°55km/h17665m3.0m/s-51.9°C0%0hPa0V00:00:0000:00:0000:00:00
WB7NNF2026-08-30 06:28:1747.66844-117.25191351°31km/h17571m6.1m/s-51.8°C0%0hPa0V00:00:0000:00:0000:00:00
WB7NNF2026-08-30 06:27:5547.66656-117.2533151°35km/h17484m7.1m/s-52.3°C0%0hPa0V00:00:0000:00:0000:00:00
WB7NNF2026-08-30 06:27:3447.66519-117.2548293°44km/h17398m5.2m/s-52.3°C0%0hPa0V00:00:0000:00:0000:00:00
WB7NNF2026-08-30 06:27:1447.66426-117.2563538°38km/h17318m4.5m/s-52.3°C0%0hPa0V00:00:0000:00:0000:00:00
WB7NNF2026-08-30 06:26:5447.66367-117.2582014°33km/h17230m1.4m/s-52.0°C0%0hPa0V00:00:0000:00:0000:00:00
WB7NNF2026-08-30 06:26:3247.66311-117.26030356°31km/h17136m3.7m/s-52.0°C0%0hPa0V00:00:0000:00:0000:00:00
WB7NNF2026-08-30 06:26:1247.66237-117.2624979°35km/h17043m4.6m/s-52.1°C0%0hPa0V00:00:0000:00:0000:00:00
WB7NNF2026-08-30 06:25:5147.66157-117.2643492°31km/h16946m0.4m/s-51.8°C0%0hPa0V00:00:0000:00:0000:00:00
WB7NNF2026-08-30 06:25:2947.66045-117.2659276°15km/h16844m3.6m/s-51.4°C0%0hPa0V00:00:0000:00:0000:00:00
WB7NNF2026-08-30 06:25:0847.65894-117.26707288°5km/h16730m8.9m/s-51.6°C0%0hPa0V00:00:0000:00:0000:00:00
WB7NNF2026-08-30 06:24:4847.65739-117.2671628°57km/h16619m4.4m/s-51.1°C0%0hPa0V00:00:0000:00:0000:00:00
WB7NNF2026-08-30 06:24:2747.65574-117.2671960km/h16508m3.5m/s-51.2°C0%0hPa0V00:00:0000:00:0000:00:00
WB7NNF2026-08-30 06:23:5347.65294-117.2679114°15km/h16329m10.6m/s-50.6°C0%0hPa0V00:00:0000:00:0000:00:00
WB7NNF2026-08-30 06:23:3347.65185-117.2687129°44km/h16197m6.6m/s-50.5°C0%0hPa0V00:00:0000:00:0000:00:00
WB7NNF2026-08-30 06:23:1247.65092-117.2704441°35km/h16092m6.5m/s-49.8°C0%0hPa0V00:00:0000:00:0000:00:00
WB7NNF2026-08-30 06:22:5247.64993-117.2725845°37km/h15986m7.0m/s-49.7°C0%0hPa0V00:00:0000:00:0000:00:00
WB7NNF2026-08-30 06:22:2947.64917-117.2750253°35km/h15878m7.2m/s-50.2°C0%0hPa0V00:00:0000:00:0000:00:00
WB7NNF2026-08-30 06:22:0947.64822-117.2778539°35km/h15779m6.8m/s-50.3°C0%0hPa0V00:00:0000:00:0000:00:00
WB7NNF2026-08-30 06:21:4847.64736-117.2802084°24km/h15686m5.0m/s-50.2°C0%0hPa0V00:00:0000:00:0000:00:00
WB7NNF2026-08-30 06:21:2847.64678-117.2819413°15km/h15585m7.6m/s-49.9°C0%0hPa0V00:00:0000:00:0000:00:00
WB7NNF2026-08-30 06:21:0747.64645-117.2833090°18km/h15490m6.2m/s-49.5°C0%0hPa0V00:00:0000:00:0000:00:00
WB7NNF2026-08-30 06:20:4547.64626-117.2849429km/h15370m3.2m/s-49.2°C0%0hPa0V00:00:0000:00:0000:00:00
WB7NNF2026-08-30 06:20:2347.64603-117.2871350°51km/h15260m9.7m/s-48.7°C0%0hPa0V00:00:0000:00:0000:00:00
WB7NNF2026-08-30 06:20:0247.64594-117.2905687°47km/h15130m6.0m/s-48.9°C0%0hPa0V00:00:0000:00:0000:00:00
WB7NNF2026-08-30 06:19:3647.64577-117.29499103°49km/h14996m6.7m/s-48.1°C0%0hPa0V00:00:0000:00:0000:00:00
WB7NNF2026-08-30 06:19:1447.64521-117.2984389°66km/h14889m5.5m/s-48.1°C0%0hPa0V00:00:0000:00:0000:00:00
WB7NNF2026-08-30 06:18:5347.64410-117.3024351°55km/h14773m4.2m/s-48.4°C0%0hPa0V00:00:0000:00:0000:00:00
WB7NNF2026-08-30 06:18:3247.64317-117.3058561°35km/h14668m3.2m/s-48.1°C0%0hPa0V00:00:0000:00:0000:00:00
WB7NNF2026-08-30 06:18:1047.64194-117.3097279°44km/h14552m6.5m/s-47.5°C0%0hPa0V00:00:0000:00:0000:00:00
WB7NNF2026-08-30 06:17:4947.64091-117.3130583°31km/h14455m6.5m/s-47.9°C0%0hPa0V00:00:0000:00:0000:00:00
WB7NNF2026-08-30 06:17:2947.63951-117.3165870°51km/h14356m2.3m/s-47.7°C0%0hPa0V00:00:0000:00:0000:00:00
WB7NNF2026-08-30 06:17:0747.63763-117.3202134°77km/h14251m3.9m/s-47.8°C0%0hPa0V00:00:0000:00:0000:00:00
WB7NNF2026-08-30 06:16:4647.63586-117.3232435°68km/h14156m3.8m/s-48.0°C0%0hPa0V00:00:0000:00:0000:00:00
WB7NNF2026-08-30 06:16:2447.63440-117.3269789°40km/h14052m6.4m/s-47.7°C0%0hPa0V00:00:0000:00:0000:00:00
WB7NNF2026-08-30 06:16:0347.63336-117.3306573°64km/h13958m5.0m/s-47.4°C0%0hPa0V00:00:0000:00:0000:00:00
WB7NNF2026-08-30 06:15:4347.63279-117.33428108°46km/h13873m1.9m/s-48.0°C0%0hPa0V00:00:0000:00:0000:00:00
WB7NNF2026-08-30 06:15:0947.63155-117.3403097°49km/h13740m2.9m/s-47.8°C0%0hPa0V00:00:0000:00:0000:00:00
WB7NNF2026-08-30 06:14:4747.63074-117.3435375°47km/h13651m6.3m/s-47.6°C0%0hPa0V00:00:0000:00:0000:00:00
WB7NNF2026-08-30 06:14:2647.62990-117.3469760°29km/h13558m6.8m/s-47.6°C0%0hPa0V00:00:0000:00:0000:00:00
WB7NNF2026-08-30 06:14:0547.62901-117.3496970°60km/h13474m2.2m/s-47.3°C0%0hPa0V00:00:0000:00:0000:00:00
WB7NNF2026-08-30 06:13:4547.62789-117.3521161°57km/h13387m5.0m/s-47.0°C0%0hPa0V00:00:0000:00:0000:00:00
WB7NNF2026-08-30 06:13:2447.62697-117.3545692°31km/h13288m4.3m/s-46.9°C0%0hPa0V00:00:0000:00:0000:00:00
WB7NNF2026-08-30 06:13:0447.62626-117.3568144°31km/h13186m6.5m/s-46.5°C0%0hPa0V00:00:0000:00:0000:00:00
WB7NNF2026-08-30 06:12:4347.62572-117.3587546°27km/h13089m4.5m/s-45.9°C0%0hPa0V00:00:0000:00:0000:00:00
WB7NNF2026-08-30 06:12:2147.62515-117.36065102°22km/h12975m4.1m/s-45.8°C0%0hPa0V00:00:0000:00:0000:00:00
WB7NNF2026-08-30 06:12:0047.62505-117.3627279°20km/h12879m4.5m/s-45.6°C0%0hPa0V00:00:0000:00:0000:00:00
WB7NNF2026-08-30 06:11:4047.62519-117.3653687°40km/h12777m6.3m/s-45.9°C0%0hPa0V00:00:0000:00:0000:00:00
WB7NNF2026-08-30 06:11:1947.62527-117.3682977°53km/h12683m3.5m/s-46.1°C0%0hPa0V00:00:0000:00:0000:00:00
WB7NNF2026-08-30 06:10:5947.62511-117.3715460°35km/h12586m5.8m/s-45.9°C0%0hPa0V00:00:0000:00:0000:00:00
WB7NNF2026-08-30 06:10:3847.62451-117.3743474°46km/h12491m5.0m/s-45.4°C0%0hPa0V00:00:0000:00:0000:00:00
WB7NNF2026-08-30 06:10:1847.62377-117.3770555°35km/h12393m3.8m/s-45.1°C0%0hPa0V00:00:0000:00:0000:00:00
WB7NNF2026-08-30 06:09:5747.62312-117.3798755°51km/h12305m3.4m/s-44.9°C0%0hPa0V00:00:0000:00:0000:00:00
WB7NNF2026-08-30 06:09:3747.62242-117.3829174°51km/h12216m6.1m/s-45.0°C0%0hPa0V00:00:0000:00:0000:00:00
WB7NNF2026-08-30 06:09:1647.62194-117.3856158°37km/h12127m4.6m/s-45.4°C0%0hPa0V00:00:0000:00:0000:00:00
WB7NNF2026-08-30 06:08:5647.62146-117.3887961°47km/h12036m5.3m/s-45.0°C0%0hPa0V00:00:0000:00:0000:00:00
WB7NNF2026-08-30 06:08:3547.62119-117.3919288°20km/h11950m4.6m/s-44.8°C0%0hPa0V00:00:0000:00:0000:00:00
WB7NNF2026-08-30 06:08:1547.62109-117.3951595°38km/h11858m5.0m/s-44.5°C0%0hPa0V00:00:0000:00:0000:00:00
WB7NNF2026-08-30 06:07:5447.62120-117.3984290°51km/h11765m3.6m/s-44.1°C0%0hPa0V00:00:0000:00:0000:00:00
WB7NNF2026-08-30 06:07:3347.62127-117.40153101°58km/h11681m2.8m/s-43.6°C0%0hPa0V00:00:0000:00:0000:00:00
WB7NNF2026-08-30 06:07:1347.62152-117.4049089°26km/h11586m4.6m/s-43.2°C0%0hPa0V00:00:0000:00:0000:00:00
WB7NNF2026-08-30 06:06:5247.62144-117.4080750°29km/h11492m2.0m/s-43.2°C0%0hPa0V00:00:0000:00:0000:00:00
WB7NNF2026-08-30 06:06:3247.62125-117.4109261°51km/h11395m4.6m/s-42.8°C0%0hPa0V00:00:0000:00:0000:00:00
WB7NNF2026-08-30 06:06:1047.62095-117.4136993°55km/h11303m2.9m/s-42.4°C0%0hPa0V00:00:0000:00:0000:00:00
WB7NNF2026-08-30 06:05:4947.62040-117.4163265°22km/h11184m7.7m/s-41.4°C0%0hPa0V00:00:0000:00:0000:00:00
WB7NNF2026-08-30 06:05:2847.61943-117.4185356°37km/h11081m4.6m/s-40.9°C0%0hPa0V00:00:0000:00:0000:00:00
WB7NNF2026-08-30 06:05:0847.61860-117.4207797°35km/h10992m4.5m/s-41.0°C0%0hPa0V00:00:0000:00:0000:00:00
WB7NNF2026-08-30 06:04:4647.61797-117.4227661°24km/h10896m6.3m/s-41.0°C0%0hPa0V00:00:0000:00:0000:00:00
WB7NNF2026-08-30 06:04:2547.61767-117.4248777°38km/h10804m4.2m/s-41.0°C0%0hPa0V00:00:0000:00:0000:00:00
WB7NNF2026-08-30 06:04:0347.61775-117.42753113°38km/h10714m2.7m/s-40.8°C0%0hPa0V00:00:0000:00:0000:00:00
WB7NNF2026-08-30 06:03:4247.61766-117.4304782°20km/h10628m3.6m/s-41.4°C0%0hPa0V00:00:0000:00:0000:00:00
WB7NNF2026-08-30 06:03:2047.61745-117.43279120°15km/h10527m4.9m/s-41.3°C0%0hPa0V00:00:0000:00:0000:00:00
WB7NNF2026-08-30 06:02:3947.61783-117.43503190°7km/h10346m3.8m/s-40.6°C0%0hPa0V00:00:0000:00:0000:00:00
WB7NNF2026-08-30 06:02:1847.61822-117.4356471°7km/h10260m3.0m/s-41.1°C0%0hPa0V00:00:0000:00:0000:00:00
WB7NNF2026-08-30 06:01:5847.61853-117.43685163°7km/h10166m5.4m/s-41.2°C0%0hPa0V00:00:0000:00:0000:00:00
WB7NNF2026-08-30 06:01:3747.61880-117.4377373°7km/h10075m5.2m/s-41.0°C0%0hPa0V00:00:0000:00:0000:00:00
WB7NNF2026-08-30 06:01:1647.61882-117.43863137°20km/h9986m4.2m/s-40.3°C0%0hPa0V00:00:0000:00:0000:00:00
WB7NNF2026-08-30 06:00:5647.61869-117.4397349°24km/h9878m7.4m/s-40.0°C0%0hPa0V00:00:0000:00:0000:00:00
WB7NNF2026-08-30 06:00:3547.61886-117.44112106°40km/h9767m5.2m/s-40.4°C0%0hPa0V00:00:0000:00:0000:00:00
WB7NNF2026-08-30 05:59:5447.61976-117.44494118°53km/h9566m4.7m/s-40.4°C0%0hPa0V00:00:0000:00:0000:00:00
WB7NNF2026-08-30 05:59:3447.62113-117.44714125°44km/h9445m5.0m/s-40.5°C0%0hPa0V00:00:0000:00:0000:00:00
WB7NNF2026-08-30 05:59:1347.62324-117.44882162°37km/h9361m3.9m/s-41.0°C0%0hPa0V00:00:0000:00:0000:00:00
WB7NNF2026-08-30 05:58:5347.62525-117.45126154°58km/h9272m3.7m/s-40.5°C0%0hPa0V00:00:0000:00:0000:00:00
WB7NNF2026-08-30 05:58:3247.62718-117.45398129°46km/h9190m3.1m/s-40.3°C0%0hPa0V00:00:0000:00:0000:00:00
WB7NNF2026-08-30 05:58:1247.62902-117.45737112°58km/h9108m4.5m/s-41.6°C0%0hPa0V00:00:0000:00:0000:00:00
WB7NNF2026-08-30 05:57:5147.63044-117.46059144°38km/h9022m3.1m/s-42.0°C0%0hPa0V00:00:0000:00:0000:00:00
WB7NNF2026-08-30 05:57:3147.63175-117.46363126°51km/h8931m3.5m/s-41.7°C0%0hPa0V00:00:0000:00:0000:00:00
WB7NNF2026-08-30 05:57:1047.63287-117.46586165°47km/h8840m3.0m/s-41.9°C0%0hPa0V00:00:0000:00:0000:00:00
WB7NNF2026-08-30 05:56:5047.63442-117.46758161°33km/h8728m5.9m/s-43.6°C0%0hPa0V00:00:0000:00:0000:00:00
WB7NNF2026-08-30 05:56:2947.63605-117.46898176°26km/h8626m4.1m/s-43.0°C0%0hPa0V00:00:0000:00:0000:00:00
WB7NNF2026-08-30 05:56:0847.63753-117.47077152°40km/h8525m8.0m/s-43.3°C0%0hPa0V00:00:0000:00:0000:00:00
WB7NNF2026-08-30 05:55:4847.63909-117.47259124°18km/h8427m2.9m/s-42.7°C0%0hPa0V00:00:0000:00:0000:00:00
WB7NNF2026-08-30 05:55:2747.64046-117.47475138°44km/h8315m6.9m/s-41.8°C0%0hPa0V00:00:0000:00:0000:00:00
WB7NNF2026-08-30 05:55:0747.64149-117.47672114°40km/h8210m5.0m/s-41.1°C0%0hPa0V00:00:0000:00:0000:00:00
WB7NNF2026-08-30 05:54:4647.64239-117.47803156°33km/h8113m3.4m/s-40.8°C0%0hPa0V00:00:0000:00:0000:00:00
WB7NNF2026-08-30 05:54:2647.64314-117.47931109°24km/h8017m5.7m/s-40.3°C0%0hPa0V00:00:0000:00:0000:00:00
WB7NNF2026-08-30 05:54:0547.64369-117.48067145°26km/h7940m5.6m/s-39.6°C0%0hPa0V00:00:0000:00:0000:00:00
WB7NNF2026-08-30 05:53:4547.64440-117.48233152°11km/h7855m4.3m/s-38.9°C0%0hPa0V00:00:0000:00:0000:00:00
WB7NNF2026-08-30 05:53:2447.64499-117.48412132°7km/h7775m3.3m/s-38.2°C0%0hPa0V00:00:0000:00:0000:00:00
WB7NNF2026-08-30 05:53:0447.64568-117.48584154°26km/h7686m4.9m/s-37.6°C0%0hPa0V00:00:0000:00:0000:00:00
WB7NNF2026-08-30 05:52:4347.64638-117.48767133°44km/h7593m7.7m/s-37.0°C0%0hPa0V00:00:0000:00:0000:00:00
WB7NNF2026-08-30 05:52:2347.64716-117.48926172°15km/h7490m4.5m/s-36.1°C0%0hPa0V00:00:0000:00:0000:00:00
WB7NNF2026-08-30 05:52:0247.64794-117.4906893°22km/h7394m2.3m/s-35.4°C0%0hPa0V00:00:0000:00:0000:00:00
WB7NNF2026-08-30 05:51:4247.64870-117.49259122°35km/h7293m4.4m/s-34.5°C0%0hPa0V00:00:0000:00:0000:00:00
WB7NNF2026-08-30 05:51:2147.64957-117.4945369°22km/h7195m6.5m/s-33.7°C0%0hPa0V00:00:0000:00:0000:00:00
WB7NNF2026-08-30 05:51:0047.65064-117.49621146°16km/h7090m6.3m/s-32.8°C0%0hPa0V00:00:0000:00:0000:00:00
WB7NNF2026-08-30 05:50:4047.65151-117.49802128°24km/h6994m5.0m/s-32.0°C0%0hPa0V00:00:0000:00:0000:00:00
WB7NNF2026-08-30 05:50:1947.65249-117.49974128°35km/h6905m4.2m/s-31.2°C0%0hPa0V00:00:0000:00:0000:00:00
WB7NNF2026-08-30 05:49:5947.65344-117.50163159°29km/h6802m3.2m/s-30.3°C0%0hPa0V00:00:0000:00:0000:00:00
WB7NNF2026-08-30 05:49:3847.65425-117.50368114°42km/h6693m5.8m/s-29.4°C0%0hPa0V00:00:0000:00:0000:00:00
WB7NNF2026-08-30 05:49:1647.65494-117.5055497°20km/h6597m4.6m/s-28.6°C0%0hPa0V00:00:0000:00:0000:00:00
WB7NNF2026-08-30 05:48:5447.65577-117.5070991°31km/h6499m4.1m/s-27.8°C0%0hPa0V00:00:0000:00:0000:00:00
WB7NNF2026-08-30 05:48:3347.65645-117.50906107°35km/h6405m3.6m/s-27.0°C0%0hPa0V00:00:0000:00:0000:00:00
WB7NNF2026-08-30 05:47:5247.65803-117.51250128°40km/h6198m4.8m/s-25.8°C0%0hPa0V00:00:0000:00:0000:00:00
WB7NNF2026-08-30 05:47:3147.65879-117.51423155°15km/h6098m3.9m/s-24.9°C0%0hPa0V00:00:0000:00:0000:00:00
WB7NNF2026-08-30 05:47:1147.65971-117.51561173°29km/h5996m5.9m/s-24.1°C0%0hPa0V00:00:0000:00:0000:00:00
WB7NNF2026-08-30 05:46:5047.66053-117.51690101°31km/h5898m4.3m/s-23.3°C0%0hPa0V00:00:0000:00:0000:00:00
WB7NNF2026-08-30 05:46:3047.66149-117.51837151°27km/h5799m6.3m/s-22.4°C0%0hPa0V00:00:0000:00:0000:00:00
WB7NNF2026-08-30 05:46:0947.66241-117.52025127°37km/h5690m4.4m/s-21.5°C0%0hPa0V00:00:0000:00:0000:00:00
WB7NNF2026-08-30 05:45:4947.66334-117.52220118°29km/h5602m5.5m/s-21.0°C0%0hPa0V00:00:0000:00:0000:00:00
WB7NNF2026-08-30 05:45:2847.66451-117.52373129°42km/h5502m5.7m/s-20.5°C0%0hPa0V00:00:0000:00:0000:00:00
WB7NNF2026-08-30 05:45:0847.66564-117.52586108°27km/h5408m4.4m/s-20.1°C0%0hPa0V00:00:0000:00:0000:00:00
WB7NNF2026-08-30 05:44:4747.66661-117.52788122°29km/h5321m6.9m/s-19.5°C0%0hPa0V00:00:0000:00:0000:00:00
WB7NNF2026-08-30 05:44:2747.66751-117.52998136°29km/h5222m3.3m/s-18.6°C0%0hPa0V00:00:0000:00:0000:00:00
WB7NNF2026-08-30 05:44:0647.66809-117.5323190°20km/h5129m3.7m/s-17.9°C0%0hPa0V00:00:0000:00:0000:00:00
WB7NNF2026-08-30 05:43:4647.66836-117.5350177°44km/h5023m4.0m/s-17.3°C0%0hPa0V00:00:0000:00:0000:00:00
WB7NNF2026-08-30 05:43:2547.66850-117.5379986°51km/h4918m3.8m/s-16.7°C0%0hPa0V00:00:0000:00:0000:00:00
WB7NNF2026-08-30 05:43:0047.66897-117.5427181°44km/h4782m6.9m/s-16.0°C0%0hPa0V00:00:0000:00:0000:00:00
WB7NNF2026-08-30 05:42:3647.66942-117.54677106°46km/h4660m8.0m/s-15.3°C0%0hPa0V00:00:0000:00:0000:00:00
WB7NNF2026-08-30 05:42:0547.67041-117.55167107°60km/h4500m2.9m/s-14.4°C0%0hPa0V00:00:0000:00:0000:00:00
WB7NNF2026-08-30 05:41:4147.67121-117.55489114°57km/h4399m4.5m/s-13.7°C0%0hPa0V00:00:0000:00:0000:00:00
WB7NNF2026-08-30 05:41:2047.67196-117.55829114°31km/h4282m4.3m/s-12.9°C0%0hPa0V00:00:0000:00:0000:00:00
WB7NNF2026-08-30 05:40:5947.67290-117.5610691°35km/h4177m4.7m/s-11.6°C0%0hPa0V00:00:0000:00:0000:00:00
WB7NNF2026-08-30 05:40:3347.67327-117.56483130°31km/h4035m5.4m/s-11.1°C0%0hPa0V00:00:0000:00:0000:00:00
WB7NNF2026-08-30 05:40:1147.67376-117.56774118°40km/h3908m6.5m/s-10.1°C0%0hPa0V00:00:0000:00:0000:00:00


GPX KML Map

© wettersonde.net (DO2JMG) - 2026  -  -